www.pogodaiklimat.ru

Погода и климат >> Архив погоды >> Мексика >> Choix


ПОГОДА в Choix

  • Прогноз погоды в Choix
  • Монитор погоды в Choix
  • Климат города

АРХИВ ПОГОДЫ в Choix

Время (UTC), дата Ветер
(напр.,м/с)
 
Видим.   Явления Облачность Т
(С)
Тd
(С)
f
(%)
Тe
(С)
Тes
(С)
Комфортность P
(гПа)
Po
(гПа)
Тmin
(С)
Tmax
(С)
R
(мм)
R24
(мм)
S
(см)
21 18.04 З 5 30 км ясно +38.7 +29.1 58 +61 +70 опасность
перегрева
1010.1 983.2
00 19.04 З 5 30 км ясно +38.6 +27.5 54 +58 +59 опасность
перегрева
1007.5 981.2 +14.8 +39.1
03 19.04 ЮЗ 1 2000 м ясно +29.9 +23.5 69 +41 +41 опасность
перегрева
1008.8 982.7
06 19.04 СВ 1 2000 м ясно +21.8 +18.9 84 +27 +27 душно 1010.1 983.8 +14.8 +39.1
09 19.04 Ю 1 5000 м ясно +18.7 +17.2 91 +21 +21 комфорт 1009.3 982.7
12 19.04 штиль 0 5000 м ясно +15.9 +14.3 90 +16 +16 1009.2 982.1 +15.7 +39.1
15 19.04 В 1 30 км ясно +23.5 +21.2 87 +30 +36 очень
душно
1011.5 984.0
18 19.04 В 2 30 км ясно +35.5 +29.1 70 +60 +79 опасность
перегрева
1010.7 983.4 +15.0 +35.8
21 19.04 штиль 0 30 км ясно +40.0 +27.7 50 +58 +82 опасность
перегрева
1008.4 981.6
00 20.04 штиль 0 30 км ясно +40.3 +29.7 56 +65 +69 опасность
перегрева
1005.9 979.7 +15.0 +41.8
03 20.04 штиль 0 2000 м ясно +30.7 +22.2 61 +40 +40 очень
душно
1008.0 982.1
06 20.04 штиль 0 2000 м ясно +24.5 +19.1 72 +29 +29 душно 1009.7 983.6 +15.0 +41.8
12 20.04 штиль 0 4000 м ясно +17.4 +14.4 83 +17 +17 1010.6 983.7 +17.1 +41.8
15 20.04 штиль 0 30 км ясно +25.7 +19.5 69 +31 +38 очень
душно
1012.8 985.4
18 20.04 штиль 0 30 км ясно +34.0 +21.6 48 +42 +68 опасность
перегрева
1011.5 984.3 +16.4 +34.6
21 20.04 СВ 2 30 км ясно +38.0 +23.4 43 +48 +65 опасность
перегрева
1008.2 981.4
00 21.04 СВ 2 30 км ясно +39.7 +24.5 42 +51 +54 опасность
перегрева
1005.2 978.9 +16.4 +40.4
03 21.04 ЮЗ 1 2000 м ясно +31.3 +21.4 56 +39 +39 очень
душно
1005.2 979.3
06 21.04 штиль 0 2000 м ясно +25.6 +18.8 66 +31 +31 очень
душно
1006.9 980.8 +16.4 +40.4
09 21.04 штиль 0 2000 м ясно +20.3 +14.8 71 +23 +23 комфорт 1007.0 980.6
12 21.04 штиль 0 2000 м ясно +17.3 +12.9 75 +17 +17 1008.9 982.0 +17.1 +40.4
15 21.04 ЮЗ 1 30 км ясно +22.4 +16.0 67 +27 +33 душно 1010.8 983.5
18 21.04 З 1 30 км ясно +34.8 +26.1 61 +51 +73 опасность
перегрева
1009.7 982.5 +16.4 +34.8
21 21.04 З 3 30 км ясно +38.0 +26.9 53 +55 +69 опасность
перегрева
1006.5 979.7
00 22.04 З 2 30 км ясно +37.5 +26.7 54 +54 +57 опасность
перегрева
1004.9 978.6 +16.4 +39.3
03 22.04 З 1 2000 м ясно +28.7 +21.0 63 +36 +36 очень
душно
1006.6 980.6
06 22.04 штиль 0 2000 м ясно +24.4 +19.6 75 +30 +30 очень
душно
1008.3 982.1 +16.5 +39.3
09 22.04 ЮЗ 1 2000 м ясно +21.0 +17.1 78 +26 +26 душно 1007.4 980.9
12 22.04 СВ 1 2000 м ясно +17.8 +14.0 78 +19 +19 1007.9 980.9 +17.6 +39.3
15 22.04 штиль 0 30 км ясно +24.9 +18.6 68 +30 +37 душно 1009.2 982.0
18 22.04 штиль 0 30 км ясно +35.0 +26.1 60 +51 +77 опасность
перегрева
1009.0 981.8 +16.8 +35.2
21 22.04 З 1 30 км ясно +37.6 +27.6 57 +57 +77 опасность
перегрева
1006.2 979.5
00 23.04 З 1 30 км ясно +38.1 +28.0 57 +58 +62 опасность
перегрева
1004.1 977.9 +16.8 +39.5
03 23.04 штиль 0 2000 м 4/4 750 м
[Sc diur, vesp]
+30.8 +23.8 66 +42 +42 опасность
перегрева
1006.4 980.4
06 23.04 штиль 0 2000 м 4/4 750 м
[Sc diur, vesp]
+25.6 +20.2 72 +32 +32 очень
душно
1007.5 981.3 +16.8 +39.5
09 23.04 штиль 0 2000 м ясно +22.2 +17.6 75 +27 +27 душно 1007.0 980.6
12 23.04 штиль 0 2000 м ясно +19.5 +15.9 80 +21 +21 комфорт 1007.9 981.0 +19.3 +39.5
15 23.04 штиль 0 30 км 5/5 750 м
[Sc diur, vesp]
+21.6 +17.7 78 +26 +30 душно 1009.5 982.3
18 23.04 штиль 0 30 км ясно +35.0 +26.1 60 +51 +77 опасность
перегрева
1009.2 982.2 +18.1 +35.2
21 23.04 З 2 30 км ясно +38.0 +27.9 57 +58 +75 опасность
перегрева
1007.4 980.7
00 24.04 З 1 30 км 8/0
[Ci fib]
+39.8 +28.2 52 +60 +63 опасность
перегрева
1004.2 978.0 +18.1 +40.2
03 24.04 штиль 0 2000 м 10/0
[Cs]
+32.3 +22.9 58 +42 +42 опасность
перегрева
1006.6 980.6
12 24.04 штиль 0 2000 м ясно +15.5 +11.4 77 +15 +15 1010.1 983.1 +15.3 +40.2
15 24.04 штиль 0 30 км ясно +23.1 +16.9 68 +28 +36 душно 1011.5 984.1
18 24.04 СВ 1 30 км ясно +34.6 +23.5 53 +46 +68 опасность
перегрева
1011.6 984.3 +14.8 +35.0
21 24.04 З 2 30 км ясно +37.7 +24.1 46 +49 +67 опасность
перегрева
1009.0 982.1
00 25.04 З 1 30 км ясно +36.9 +23.9 47 +48 +52 опасность
перегрева
1006.4 980.0 +14.8 +38.0
03 25.04 штиль 0 2000 м ясно +28.9 +19.8 58 +35 +35 очень
душно
1007.4 981.3
06 25.04 штиль 0 2000 м ясно +22.6 +15.7 65 +27 +27 душно 1009.8 983.5 +14.8 +38.0
09 25.04 штиль 0 2000 м ясно +17.6 +12.3 71 +18 +18 1010.4 983.7
12 25.04 штиль 0 2000 м ясно +14.3 +10.1 76 +14 +14 1010.3 983.1 +14.1 +30.8
15 25.04 штиль 0 30 км ясно +20.7 +14.6 68 +23 +31 комфорт 1011.0 983.3
18 25.04 ЮВ 3 30 км ясно +34.0 +22.8 52 +44 +60 опасность
перегрева
1009.9 982.5 +13.7 +34.6

 

Местоположение метеостанции Choix (Мексика): широта 26.73 долгота -108.20 высота над уровнем моря 238 м.

В архиве по умолчанию представлена погода в Choix за последнюю неделю. Архивные данные за месяц целиком и за предыдущие месяцы, начиная с января 2011 года, Вы можете получить, выбрав интересующий диапазон дат из раскрывающегося списка и нажав кнопку "Ввод!".

Внимание! Время в таблицах - всемирное. Для получения местного времени необходимо прибавить поправку, которая в Choix равна -6 ч.

Смотрите также архив погоды в соседних городах и на ближайших метеорологических станциях:

Погода в Ciudad Obregon (Мексика) (177 км)
Погода в Culiacan (Мексика) (229 км)
Погода в Temosachic (Мексика) (250 км)
Погода в Hidalgo del Parral (Мексика) (259 км)
Погода в Empalme (Мексика) (282 км)
Погода в Tepehuanes (Мексика) (292 км)
Погода в Guaymas Upper Air Site (Мексика) (296 км)
Погода в Chihuahua (Мексика) (303 км)
Погода в Chihuahua University (Мексика) (303 км)
Погода в Loreto (Мексика) (319 км)

Пояснения к столбцам:

Ветер - указаны скорость ветра в м/с - средняя за 10 мин, порывы в срок и между сроками (в фигурных скобках) и направление, откуда дует ветер: С - северный, СВ - северо-восточный, В - восточный, ЮВ - юго-восточный, Ю - южный, ЮЗ - юго-западный, З - западный, СЗ - северо-западный.
Видимость - горизонтальная дальность видимости в метрах или километрах. При видимости от 1 до 10 км при отсутствии осадков обычно наблюдается дымка, при ухудшении видимости до 1 км и менее - туман. В сухую погоду видимость может ухудшаться дымом, пылью или мглою.
Явления - указаны атмосферные явления, наблюдавшиеся в срок или в последний час перед сроком; фигурными скобками обозначены явления, наблюдавшиеся между сроками (за 1-3 часа до срока); квадратными скобками обозначены град или гололедные отложения с указанием их диаметра в мм.
Облачность - указаны через наклонную черту общая и нижняя облачность в баллах и высота нижней границы облаков в метрах; квадратными скобками обозначены формы облаков: Ci - перистые, Cs - перисто-слоистые, Cc - перисто-кучевые, Ac - высококучевые, As - высокослоистые, Sc - слоисто-кучевые, Ns - слоисто-дождевые, Cu - кучевые, Cb - кучево-дождевые. Подробнее классификацию облаков см. в Атласе облаков (PDF).
T - Температура воздуха - температура, измеренная на высоте 2 м над землей.
Td - Температура точки росы - температура, при понижении до которой содержащийся в воздухе водяной пар достигнет насыщения.
f - Относительная влажность воздуха - влажноcть воздуха, измеренная на высоте 2 м над землей.
Te - Эффективная температура - температура, которую ощущает одетый по сезону человек в тени. Характеристика душности погоды. При расчете учитывается влияние влажности воздуха и скорости ветра на теплоощущения человека.
Tes - Эффективная температура на солнце - температура, которую ощущает человек, с поправкой на солнечный нагрев. Характеристика знойности погоды. Зависит от высоты солнца над горизонтом, облачности и скорости ветра. Ночью, в пасмурную погоду, а также при ветре 12 м/с и более поправка равна нулю.
P - Атмосферное давление - приведенное к уровню моря атмосферное давление.
Po - Атмосферное давление - измеренное на уровне метеостанции атмосферное давление.
Tmin - Минимальная температура - минимум температуры воздуха на высоте 2 м над землей.
Tmax - Максимальная температура - максимум температуры воздуха на высоте 2 м над землей.
R - Количество осадков - Количество выпавших осадков за период времени, мм. При наведении курсора мыши на число - период времени, за который выпало указанное количество осадков.
R24 - Количество осадков - Количество выпавших осадков за 24 часа, мм.
S - Снежный покров - Высота снежного покрова, см. При наведении курсора мыши на число - состояние снежного покрова и степень покрытия местности в баллах.